User: anonymous   Login
Location: Unspecified
(0.0000°N, 0.0000°E)
Time: 03:20:32
(UTC+00:00)
Language:

TBA - TO BE ASSIGNED - Orbit

View from above orbital plane
View from above orbital plane
View from above satellite
View from above satellite

Ground track
Ground track

The orbit is defined by the following mean orbital elements,

1 68442U          26145.62612332 +.00000000 +00000-0 +26614-3 0 00002
2 68442  97.4525 104.3565 0005741 130.5853 229.5881 15.17477296    08
Epoch (UTC): 25 May 2026 15:01:37
Eccentricity: 0.0005741
inclination: 97.4525°
perigee height: 510 km
apogee height: 517 km
right ascension of ascending node: 104.3565°
argument of perigee: 130.5853°
revolutions per day: 15.17477296
mean anomaly at epoch: 229.5881°

The dashed part of the orbit path shows where the satellite is in the earth's shadow,  

DLR